Showing default

MIDAS 4, 192

Orbit data source: Space-Track

MIDAS 4, 192 is a payload satellite owned by USAF SSD (US) in LEO that was launched on Sat, 21 Oct 1961 UTC via an ATLAS AGENA B launch vehicle from the Air Force Western Test Range (AFWTR). Payload-class satellites include a variety of spacecraft equipped with specific instruments for various scientific and technological missions. These include communications satellites like Starlink; space stations such as the ISS; scientific satellites like the Hubble; Earth observation satellites from companies like Planet Labs, Umbra, and HawkEye 360; GPS; miniature CubeSats for education and research; and military/defense satellites.

Loading next visibility...
Identifier
192, 1961-028A
Orbit
LEO
Last TLE update
8 hours ago
Origin
Manufacturer
LMSC
Mission
Defense Early Warn
Bus & Motor
MIDAS, Unknown motor
Mass
~1,540 kg wet, 840 kg dry
Launch date (UTC)
1961-10-21 (64 years ago)
Launch vehicle
ATLAS AGENA B
Launch site
Air Force Western Test Range (AFWTR)
Object type
Payload
Rocket body
Debris
Shape & HBR
Cyl, 8.99 m
Radar Cross Section
11.475 m², Large (>1 m²)

Expand to show TLE details & history

TLE from 8 hours ago
0 MIDAS 4
1 00192U 61028A   25128.87223085  .00000016  00000-0  89173-2 0  9999
2 00192  95.8343 138.7106 0136636   4.0806 356.1133  8.67772571 13089
Epoch: 2025-05-08T20:56Z
Definitive object data (Epoch: 2025-05-08T20:56:00.745Z)
Latitude
Longitude
-42.229°
Altitude
3,490.671 km
Speed
6.399 km/s
True Right ascension
09h 14m 50s
True Declination
0° 00' 00"
Sunlit
Object was in daylight at TLE epoch
Visualization TLE readout
Latitude
13.94682°
Longitude
-43.60389°
Altitude
3,491.808 km
Speed
6.399 km/s
Apparent Right ascension
07h 06m 57s
Apparent Declination
-11° 03' 02"
Sunlit
Object is in daylight
Visualization observer readout
Local Sidereal Time
13:28:54
Azimuth
264.924° W
Elevation
-11.244°
Doppler factor
1
Orbital elements
Apogee altitude
3,759.406 km
Perigee altitude
3,486.11 km
Semi-major axis
10,000.895 km
Eccentricity
0.0136636
Inclination
95.8343°
RAAN
138.7106°
Arg. of periapsis
4.0806°
True anomaly
356.00533°
Mean anomaly
356.1133°
Eccentric anomaly
356.0595°
Mean motion
2.17013 °/min
BSTAR
0.0089173
Orbital period
165.89 mins
Loading maneuver chart data...
Loading SW <> Apogee altitude chart data...
Loading historical data...
Loading historical data...
Loading historical data...
Loading historical data...
Loading historical data...
Loading historical data...
Loading historical data...

MIDAS 4 Visibility forecast

Observer location: undefined°, undefined°

Span
Click to sort rows by Start time (UTC) header in descending order
Start Az.
Max El. time (UTC)
Max El. Az.
Max El.
End time (UTC)
End Az.
35 mins2025-05-09 11:33:15.193Z16.821° NNE2025-05-09 11:50:15.193Z84.95° E35.55°2025-05-09 12:08:15.193Z157.57° S
34 mins2025-05-09 14:17:15.193Z3.82° NNE2025-05-09 14:34:15.193Z290.653° WNW39.941°2025-05-09 14:51:15.193Z222.333° SW
14 mins2025-05-09 17:04:15.193Z348.079° N2025-05-09 17:10:15.193Z327.274° NNW14.453°2025-05-09 17:18:15.193Z300.18° NW
25 mins2025-05-09 22:02:15.193Z96.463° ESE2025-05-09 22:13:15.193Z52.688° ENE25.632°2025-05-09 22:27:15.193Z0.297° NNE
34 mins2025-05-10 00:37:15.193Z169.457° S2025-05-10 00:54:15.193Z289.396° WNW44.85°2025-05-10 01:11:15.193Z350.288° N
21 mins2025-05-10 03:31:15.193Z251.804° W2025-05-10 03:40:15.193Z285.791° WNW18.124°2025-05-10 03:52:15.193Z329.674° NNW
|